Location: Hawks Ness
(60.2333°N, 1.1667°W)
Time: 00:27:59
(UTC+00:00)

Cosmos 2322 Rocket - Pass Details

Date: 22 October 2019
Orbit: 834 x 850 km, 71.0° (Epoch: 16 November)

Event Time Altitude Azimuth Distance (km) Brightness Sun altitude
Exits shadow 02:49:32 62° 21° (NNE) 939 2.5 -30.6°
Drops below altitude 10° 02:54:16 10° 40° (NE) 2,459 5.5 -30.1°
Sets 02:56:43 0° 42° (NE) 3,398 6.5 -29.8°
